Location: Barcelona
(41.3830°N, 2.1830°E)
Time: 13:12:56
(UTC+02:00)

ISS - Pass Details

Date: 23 May 2020
Orbit: 417 x 419 km, 51.6° (Epoch: 31 May)

Event Time Altitude Azimuth Distance (km) Brightness Sun altitude
Rises 00:42:08 0° 309° (NW) 2,369 0.9 -26.1°
Reaches altitude 10° 00:44:35 10° 326° (NNW) 1,504 0.0 -26.3°
Maximum altitude 00:47:13 21° 18° (NNE) 1,013 -1.3 -26.4°
Enters shadow 00:47:21 21° 21° (NNE) 1,014 -1.3 -26.4°
